Wetterdaten: Samstag, 10.10.2015
Datum Zeit Auen-Temp. Temp gefhlt Luftfeuchte Luftdruck Regen Wind Richtung Richtung Taupunkt Windben
10.10.2015 00:00 7,5 C 7,4 C 89 % 1017,2 hPa 0,0 mm 0,0 km/h (0 Bft) SO 135 5,8 C 0,0 km/h (0 Bft)
10.10.2015 00:05 7,0 C 7,0 C 88 % 1017,2 hPa 0,0 mm 0,0 km/h (0 Bft) SO 135 5,2 C 0,0 km/h (0 Bft)
10.10.2015 00:10 7,0 C 6,9 C 88 % 1017,2 hPa 0,0 mm 0,0 km/h (0 Bft) S 180 5,2 C 0,0 km/h (0 Bft)
10.10.2015 00:15 7,2 C 6,9 C 88 % 1017,2 hPa 0,0 mm 0,0 km/h (0 Bft) SO 135 5,3 C 0,0 km/h (0 Bft)
10.10.2015 00:20 7,5 C 7,1 C 89 % 1017,2 hPa 0,0 mm 0,0 km/h (0 Bft) O-SO 112 5,8 C 0,0 km/h (0 Bft)
10.10.2015 00:25 7,3 C 7,1 C 89 % 1017,2 hPa 0,0 mm 0,0 km/h (0 Bft) S-SO 157 5,6 C 0,0 km/h (0 Bft)
10.10.2015 00:30 6,8 C 6,7 C 90 % 1017,0 hPa 0,0 mm 0,0 km/h (0 Bft) S 180 5,3 C 0,0 km/h (0 Bft)
10.10.2015 00:35 6,4 C 6,3 C 89 % 1017,0 hPa 0,0 mm 0,0 km/h (0 Bft) S 180 4,7 C 0,0 km/h (0 Bft)
10.10.2015 00:40 6,7 C 6,5 C 86 % 1017,0 hPa 0,0 mm 0,0 km/h (0 Bft) O-SO 112 4,5 C 0,0 km/h (0 Bft)
10.10.2015 00:45 6,3 C 6,1 C 89 % 1017,0 hPa 0,0 mm 0,0 km/h (0 Bft) SW 225 4,6 C 0,0 km/h (0 Bft)
10.10.2015 00:50 6,3 C 6,1 C 89 % 1016,8 hPa 0,0 mm 0,0 km/h (0 Bft) SW 225 4,6 C 0,0 km/h (0 Bft)
10.10.2015 00:55 5,9 C 5,7 C 90 % 1016,8 hPa 0,0 mm 0,0 km/h (0 Bft) S 180 4,4 C 0,0 km/h (0 Bft)
10.10.2015 01:00 6,0 C 5,8 C 89 % 1016,8 hPa 0,0 mm 0,0 km/h (0 Bft) S 180 4,3 C 0,0 km/h (0 Bft)
10.10.2015 01:05 6,0 C 5,8 C 86 % 1016,8 hPa 0,0 mm 0,0 km/h (0 Bft) S 180 3,8 C 0,0 km/h (0 Bft)
10.10.2015 01:10 5,9 C 5,6 C 90 % 1016,7 hPa 0,0 mm 0,0 km/h (0 Bft) S 180 4,4 C 0,0 km/h (0 Bft)
10.10.2015 01:15 5,3 C 5,2 C 90 % 1016,7 hPa 0,0 mm 0,0 km/h (0 Bft) S 180 3,8 C 0,0 km/h (0 Bft)
10.10.2015 01:20 5,5 C 5,3 C 90 % 1016,7 hPa 0,0 mm 0,0 km/h (0 Bft) S-SO 157 4,0 C 0,0 km/h (0 Bft)
10.10.2015 01:25 6,0 C 5,7 C 90 % 1016,7 hPa 0,0 mm 0,0 km/h (0 Bft) S-SO 157 4,5 C 0,0 km/h (0 Bft)
10.10.2015 01:30 5,7 C 5,5 C 91 % 1016,7 hPa 0,0 mm 0,0 km/h (0 Bft) S 180 4,3 C 0,0 km/h (0 Bft)
10.10.2015 01:35 5,5 C 5,4 C 91 % 1016,7 hPa 0,0 mm 0,0 km/h (0 Bft) S-SW 202 4,2 C 0,0 km/h (0 Bft)
10.10.2015 01:40 5,4 C 5,3 C 91 % 1016,7 hPa 0,0 mm 0,0 km/h (0 Bft) S-SW 202 4,1 C 0,0 km/h (0 Bft)
10.10.2015 01:45 5,7 C 5,7 C 87 % 1016,7 hPa 0,0 mm 0,0 km/h (0 Bft) S-SW 202 3,7 C 0,0 km/h (0 Bft)
10.10.2015 01:50 5,8 C 5,9 C 87 % 1016,5 hPa 0,0 mm 0,0 km/h (0 Bft) S-SW 202 3,8 C 0,0 km/h (0 Bft)
10.10.2015 01:55 6,1 C 6,2 C 87 % 1016,5 hPa 0,0 mm 0,0 km/h (0 Bft) O-SO 112 4,1 C 0,0 km/h (0 Bft)
10.10.2015 02:00 6,1 C 6,4 C 87 % 1016,5 hPa 0,0 mm 0,0 km/h (0 Bft) S-SW 202 4,1 C 0,0 km/h (0 Bft)
10.10.2015 02:05 6,1 C 6,7 C 87 % 1016,5 hPa 0,0 mm 0,0 km/h (0 Bft) S-SW 202 4,1 C 0,0 km/h (0 Bft)
10.10.2015 02:10 6,1 C 6,6 C 87 % 1016,4 hPa 0,0 mm 0,0 km/h (0 Bft) O-SO 112 4,1 C 0,0 km/h (0 Bft)
10.10.2015 02:15 6,1 C 6,5 C 87 % 1016,4 hPa 0,0 mm 0,0 km/h (0 Bft) O-SO 112 4,1 C 0,0 km/h (0 Bft)
10.10.2015 02:20 6,3 C 6,6 C 87 % 1016,4 hPa 0,0 mm 0,0 km/h (0 Bft) O-SO 112 4,3 C 0,0 km/h (0 Bft)
10.10.2015 02:25 6,4 C 6,6 C 87 % 1016,4 hPa 0,0 mm 0,0 km/h (0 Bft) O-SO 112 4,4 C 0,0 km/h (0 Bft)
10.10.2015 02:30 6,5 C 6,6 C 87 % 1016,2 hPa 0,0 mm 0,0 km/h (0 Bft) O-SO 112 4,5 C 0,0 km/h (0 Bft)
10.10.2015 02:35 6,5 C 6,6 C 87 % 1016,2 hPa 0,0 mm 0,0 km/h (0 Bft) O-SO 112 4,5 C 0,0 km/h (0 Bft)
10.10.2015 02:40 6,6 C 6,7 C 87 % 1016,2 hPa 0,0 mm 0,0 km/h (0 Bft) SW 225 4,6 C 0,0 km/h (0 Bft)
10.10.2015 02:43 6,6 C 6,7 C 87 % 1016,2 hPa 0,0 mm 0,0 km/h (0 Bft) SW 225 4,6 C 0,0 km/h (0 Bft)
10.10.2015 02:45 6,6 C 6,7 C 87 % 1016,2 hPa 0,0 mm 0,0 km/h (0 Bft) SW 225 4,6 C 0,0 km/h (0 Bft)
10.10.2015 02:50 6,8 C 7,0 C 87 % 1016,2 hPa 0,0 mm 0,0 km/h (0 Bft) SW 225 4,8 C 0,0 km/h (0 Bft)
10.10.2015 02:55 6,9 C 7,2 C 87 % 1016,2 hPa 0,0 mm 0,0 km/h (0 Bft) O-SO 112 4,9 C 0,0 km/h (0 Bft)
10.10.2015 03:00 6,9 C 7,1 C 87 % 1016,2 hPa 0,0 mm 0,0 km/h (0 Bft) O-SO 112 4,9 C 0,0 km/h (0 Bft)
10.10.2015 03:05 7,0 C 7,1 C 87 % 1016,2 hPa 0,0 mm 0,0 km/h (0 Bft) O-SO 112 5,0 C 0,0 km/h (0 Bft)
10.10.2015 03:10 7,0 C 7,2 C 87 % 1016,1 hPa 0,0 mm 0,0 km/h (0 Bft) O-SO 112 5,0 C 0,0 km/h (0 Bft)
10.10.2015 03:15 7,1 C 7,2 C 87 % 1016,1 hPa 0,0 mm 0,0 km/h (0 Bft) O-SO 112 5,1 C 0,0 km/h (0 Bft)
10.10.2015 03:20 7,2 C 7,3 C 87 % 1016,1 hPa 0,0 mm 0,0 km/h (0 Bft) S-SO 157 5,2 C 0,0 km/h (0 Bft)
10.10.2015 03:25 7,3 C 7,4 C 87 % 1016,1 hPa 0,0 mm 0,0 km/h (0 Bft) O-NO 67 5,3 C 0,0 km/h (0 Bft)
10.10.2015 03:30 7,3 C 7,5 C 87 % 1015,9 hPa 0,0 mm 0,0 km/h (0 Bft) NO 45 5,3 C 0,0 km/h (0 Bft)
10.10.2015 03:35 7,4 C 7,6 C 87 % 1015,9 hPa 0,0 mm 0,0 km/h (0 Bft) N-NO 22 5,4 C 0,0 km/h (0 Bft)
10.10.2015 03:40 7,5 C 7,6 C 87 % 1015,9 hPa 0,0 mm 0,0 km/h (0 Bft) O-NO 67 5,5 C 0,0 km/h (0 Bft)
10.10.2015 03:45 7,6 C 7,8 C 88 % 1015,9 hPa 0,0 mm 0,0 km/h (0 Bft) N-NO 22 5,7 C 0,0 km/h (0 Bft)
10.10.2015 03:50 7,7 C 7,8 C 88 % 1015,9 hPa 0,0 mm 0,0 km/h (0 Bft) NW 315 5,8 C 0,0 km/h (0 Bft)
10.10.2015 03:55 7,7 C 7,7 C 91 % 1015,9 hPa 0,0 mm 0,0 km/h (0 Bft) NW 315 6,3 C 0,0 km/h (0 Bft)
10.10.2015 04:00 7,7 C 7,7 C 91 % 1015,9 hPa 0,0 mm 0,0 km/h (0 Bft) NW 315 6,3 C 0,0 km/h (0 Bft)
10.10.2015 04:05 7,6 C 7,7 C 88 % 1015,9 hPa 0,0 mm 0,0 km/h (0 Bft) W-NW 292 5,7 C 0,0 km/h (0 Bft)
10.10.2015 04:10 7,6 C 7,7 C 88 % 1015,8 hPa 0,0 mm 0,0 km/h (0 Bft) NW 315 5,7 C 0,0 km/h (0 Bft)
10.10.2015 04:15 7,6 C 7,6 C 88 % 1015,8 hPa 0,0 mm 0,0 km/h (0 Bft) NW 315 5,7 C 0,0 km/h (0 Bft)
10.10.2015 04:20 7,6 C 7,6 C 88 % 1015,8 hPa 0,0 mm 0,0 km/h (0 Bft) NW 315 5,7 C 0,0 km/h (0 Bft)
10.10.2015 04:25 7,6 C 7,6 C 88 % 1015,8 hPa 0,0 mm 0,0 km/h (0 Bft) W-NW 292 5,7 C 0,0 km/h (0 Bft)
10.10.2015 04:30 7,6 C 7,6 C 88 % 1015,9 hPa 0,0 mm 0,0 km/h (0 Bft) NW 315 5,7 C 0,0 km/h (0 Bft)
10.10.2015 04:35 7,6 C 7,6 C 88 % 1015,9 hPa 0,0 mm 0,0 km/h (0 Bft) SW 225 5,7 C 0,0 km/h (0 Bft)
10.10.2015 04:40 7,6 C 7,6 C 88 % 1015,9 hPa 0,0 mm 0,0 km/h (0 Bft) W-SW 247 5,7 C 0,0 km/h (0 Bft)
10.10.2015 04:45 7,4 C 7,5 C 88 % 1015,9 hPa 0,0 mm 1,6 km/h (1 Bft) W-SW 247 5,5 C 4,9 km/h (1 Bft)
10.10.2015 04:50 7,4 C 7,4 C 88 % 1015,5 hPa 0,0 mm 2,1 km/h (1 Bft) W-NW 292 5,5 C 0,0 km/h (0 Bft)
10.10.2015 04:55 7,4 C 7,4 C 88 % 1015,5 hPa 0,0 mm 0,8 km/h (0 Bft) SW 225 5,5 C 0,0 km/h (0 Bft)
10.10.2015 05:00 7,3 C 7,4 C 88 % 1015,5 hPa 0,0 mm 0,0 km/h (0 Bft) W-SW 247 5,4 C 0,0 km/h (0 Bft)
10.10.2015 05:05 7,3 C 7,3 C 88 % 1015,5 hPa 0,0 mm 0,0 km/h (0 Bft) W-SW 247 5,4 C 0,0 km/h (0 Bft)
10.10.2015 05:10 7,3 C 7,3 C 88 % 1015,4 hPa 0,0 mm 0,0 km/h (0 Bft) SW 225 5,4 C 0,0 km/h (0 Bft)
10.10.2015 05:15 7,3 C 7,3 C 88 % 1015,4 hPa 0,0 mm 0,8 km/h (0 Bft) SW 225 5,4 C 0,0 km/h (0 Bft)
10.10.2015 05:20 7,3 C 7,3 C 88 % 1015,4 hPa 0,0 mm 0,5 km/h (0 Bft) SW 225 5,4 C 0,0 km/h (0 Bft)
10.10.2015 05:25 7,3 C 7,3 C 88 % 1015,4 hPa 0,0 mm 0,8 km/h (0 Bft) SW 225 5,4 C 3,4 km/h (1 Bft)
10.10.2015 05:30 7,3 C 7,3 C 88 % 1015,4 hPa 0,0 mm 1,0 km/h (0 Bft) W-SW 247 5,4 C 0,0 km/h (0 Bft)
10.10.2015 05:35 7,3 C 7,4 C 88 % 1015,4 hPa 0,0 mm 0,8 km/h (0 Bft) W-NW 292 5,4 C 0,0 km/h (0 Bft)
10.10.2015 05:40 7,4 C 7,3 C 91 % 1015,4 hPa 0,0 mm 0,0 km/h (0 Bft) W 270 6,0 C 0,0 km/h (0 Bft)
10.10.2015 05:45 7,4 C 7,4 C 88 % 1015,4 hPa 0,0 mm 0,0 km/h (0 Bft) W-SW 247 5,5 C 0,0 km/h (0 Bft)
10.10.2015 05:50 7,4 C 7,4 C 88 % 1015,3 hPa 0,0 mm 0,0 km/h (0 Bft) W 270 5,5 C 0,0 km/h (0 Bft)
10.10.2015 05:55 7,4 C 7,4 C 88 % 1015,3 hPa 0,0 mm 0,3 km/h (0 Bft) W 270 5,5 C 0,0 km/h (0 Bft)
10.10.2015 06:00 7,3 C 7,4 C 88 % 1015,3 hPa 0,0 mm 0,3 km/h (0 Bft) S-SO 157 5,4 C 0,0 km/h (0 Bft)
10.10.2015 06:05 7,3 C 7,3 C 88 % 1015,3 hPa 0,0 mm 0,0 km/h (0 Bft) W-SW 247 5,4 C 0,0 km/h (0 Bft)
10.10.2015 06:10 7,3 C 7,3 C 88 % 1015,1 hPa 0,0 mm 0,0 km/h (0 Bft) W-SW 247 5,4 C 0,0 km/h (0 Bft)
10.10.2015 06:15 7,3 C 7,3 C 88 % 1015,1 hPa 0,0 mm 0,0 km/h (0 Bft) W-SW 247 5,4 C 0,0 km/h (0 Bft)
10.10.2015 06:20 7,3 C 7,3 C 88 % 1015,1 hPa 0,0 mm 0,0 km/h (0 Bft) W-SW 247 5,4 C 0,0 km/h (0 Bft)
10.10.2015 06:25 7,2 C 7,3 C 88 % 1015,1 hPa 0,0 mm 0,0 km/h (0 Bft) W-SW 247 5,3 C 0,0 km/h (0 Bft)
10.10.2015 06:30 7,3 C 7,3 C 88 % 1015,2 hPa 0,0 mm 0,0 km/h (0 Bft) S-SW 202 5,4 C 0,0 km/h (0 Bft)
10.10.2015 06:35 7,3 C 7,3 C 88 % 1015,2 hPa 0,0 mm 0,0 km/h (0 Bft) SW 225 5,4 C 0,0 km/h (0 Bft)
10.10.2015 06:40 7,3 C 7,3 C 88 % 1015,2 hPa 0,0 mm 0,0 km/h (0 Bft) W-SW 247 5,4 C 0,0 km/h (0 Bft)
10.10.2015 06:45 7,3 C 7,3 C 88 % 1015,2 hPa 0,0 mm 0,0 km/h (0 Bft) NW 315 5,4 C 0,0 km/h (0 Bft)
10.10.2015 06:50 7,3 C 7,2 C 90 % 1015,0 hPa 0,0 mm 0,0 km/h (0 Bft) NW 315 5,8 C 0,0 km/h (0 Bft)
10.10.2015 06:55 7,3 C 7,3 C 88 % 1015,0 hPa 0,0 mm 0,0 km/h (0 Bft) W-NW 292 5,4 C 0,0 km/h (0 Bft)
10.10.2015 07:00 7,2 C 7,2 C 88 % 1015,0 hPa 0,0 mm 0,0 km/h (0 Bft) W-NW 292 5,3 C 0,0 km/h (0 Bft)
10.10.2015 07:05 7,2 C 7,2 C 88 % 1015,0 hPa 0,0 mm 0,3 km/h (0 Bft) W-SW 247 5,3 C 0,0 km/h (0 Bft)
10.10.2015 07:10 7,2 C 7,2 C 88 % 1015,0 hPa 0,0 mm 0,5 km/h (0 Bft) W-SW 247 5,3 C 3,9 km/h (1 Bft)
10.10.2015 07:15 7,1 C 7,1 C 88 % 1015,0 hPa 0,0 mm 1,0 km/h (0 Bft) W 270 5,2 C 0,0 km/h (0 Bft)
10.10.2015 07:20 7,1 C 7,1 C 88 % 1015,0 hPa 0,0 mm 0,8 km/h (0 Bft) W-SW 247 5,2 C 0,0 km/h (0 Bft)
10.10.2015 07:25 7,1 C 7,2 C 88 % 1015,0 hPa 0,0 mm 0,0 km/h (0 Bft) W 270 5,2 C 0,0 km/h (0 Bft)
10.10.2015 07:30 7,1 C 7,2 C 88 % 1014,9 hPa 0,0 mm 0,0 km/h (0 Bft) W 270 5,2 C 0,0 km/h (0 Bft)
10.10.2015 07:35 7,1 C 7,1 C 88 % 1014,9 hPa 0,0 mm 0,0 km/h (0 Bft) W-NW 292 5,2 C 0,0 km/h (0 Bft)
10.10.2015 07:40 7,1 C 7,2 C 88 % 1014,9 hPa 0,0 mm 0,0 km/h (0 Bft) W-NW 292 5,2 C 0,0 km/h (0 Bft)
10.10.2015 07:45 7,2 C 7,2 C 88 % 1014,9 hPa 0,0 mm 0,0 km/h (0 Bft) W-NW 292 5,3 C 0,0 km/h (0 Bft)
10.10.2015 07:50 7,2 C 7,2 C 88 % 1014,9 hPa 0,0 mm 0,0 km/h (0 Bft) W-NW 292 5,3 C 0,0 km/h (0 Bft)
10.10.2015 07:55 7,2 C 7,2 C 88 % 1014,9 hPa 0,0 mm 0,0 km/h (0 Bft) W 270 5,3 C 0,0 km/h (0 Bft)
10.10.2015 08:00 7,2 C 7,2 C 88 % 1014,9 hPa 0,0 mm 0,0 km/h (0 Bft) S-SW 202 5,3 C 0,0 km/h (0 Bft)
10.10.2015 08:05 7,2 C 7,2 C 88 % 1014,9 hPa 0,0 mm 0,0 km/h (0 Bft) S 180 5,3 C 0,0 km/h (0 Bft)
10.10.2015 08:10 7,2 C 7,2 C 88 % 1014,9 hPa 0,0 mm 0,0 km/h (0 Bft) W-SW 247 5,3 C 0,0 km/h (0 Bft)
10.10.2015 08:15 7,1 C 7,2 C 88 % 1014,9 hPa 0,0 mm 0,8 km/h (0 Bft) S 180 5,2 C 0,0 km/h (0 Bft)
10.10.2015 08:20 7,1 C 7,2 C 88 % 1014,9 hPa 0,0 mm 1,0 km/h (0 Bft) SW 225 5,2 C 3,9 km/h (1 Bft)
10.10.2015 08:25 7,2 C 7,3 C 88 % 1014,9 hPa 0,0 mm 0,5 km/h (0 Bft) SW 225 5,3 C 0,0 km/h (0 Bft)
10.10.2015 08:30 7,2 C 7,3 C 88 % 1014,9 hPa 0,0 mm 0,3 km/h (0 Bft) W-SW 247 5,3 C 0,0 km/h (0 Bft)
10.10.2015 08:35 7,3 C 7,4 C 88 % 1014,9 hPa 0,0 mm 0,0 km/h (0 Bft) W-SW 247 5,4 C 0,0 km/h (0 Bft)
10.10.2015 08:40 7,3 C 7,5 C 88 % 1014,9 hPa 0,0 mm 0,3 km/h (0 Bft) N-NW 337 5,4 C 3,4 km/h (1 Bft)
10.10.2015 08:44 7,3 C 7,5 C 88 % 1014,9 hPa 0,0 mm 0,3 km/h (0 Bft) N-NW 337 5,4 C 3,4 km/h (1 Bft)
10.10.2015 08:45 7,3 C 7,5 C 88 % 1014,9 hPa 0,0 mm 0,3 km/h (0 Bft) N-NW 337 5,4 C 3,4 km/h (1 Bft)
10.10.2015 08:50 7,2 C 7,6 C 88 % 1015,1 hPa 0,0 mm 0,3 km/h (0 Bft) NO 45 5,3 C 0,0 km/h (0 Bft)
10.10.2015 08:55 7,3 C 7,8 C 88 % 1015,1 hPa 0,0 mm 0,0 km/h (0 Bft) NO 45 5,4 C 0,0 km/h (0 Bft)
10.10.2015 09:00 7,3 C 7,9 C 88 % 1015,1 hPa 0,0 mm 0,0 km/h (0 Bft) N-NW 337 5,4 C 0,0 km/h (0 Bft)
10.10.2015 09:05 7,4 C 8,0 C 88 % 1015,1 hPa 0,0 mm 0,5 km/h (0 Bft) NW 315 5,5 C 0,0 km/h (0 Bft)
10.10.2015 09:10 7,5 C 8,1 C 88 % 1015,1 hPa 0,0 mm 0,5 km/h (0 Bft) N-NW 337 5,6 C 0,0 km/h (0 Bft)
10.10.2015 09:15 7,5 C 8,2 C 88 % 1015,1 hPa 0,0 mm 0,0 km/h (0 Bft) O-NO 67 5,6 C 0,0 km/h (0 Bft)
10.10.2015 09:20 7,5 C 8,3 C 88 % 1015,1 hPa 0,0 mm 0,0 km/h (0 Bft) N-NW 337 5,6 C 0,0 km/h (0 Bft)
10.10.2015 09:25 7,6 C 8,3 C 88 % 1015,1 hPa 0,0 mm 0,0 km/h (0 Bft) NW 315 5,7 C 0,0 km/h (0 Bft)
10.10.2015 09:30 7,6 C 8,3 C 88 % 1015,2 hPa 0,0 mm 0,0 km/h (0 Bft) NW 315 5,7 C 0,0 km/h (0 Bft)
10.10.2015 09:35 7,6 C 8,3 C 88 % 1015,2 hPa 0,0 mm 0,0 km/h (0 Bft) N-NO 22 5,7 C 0,0 km/h (0 Bft)
10.10.2015 09:40 7,7 C 8,2 C 88 % 1015,2 hPa 0,0 mm 1,8 km/h (1 Bft) NO 45 5,8 C 6,5 km/h (2 Bft)
10.10.2015 09:45 7,8 C 8,2 C 88 % 1015,2 hPa 0,0 mm 4,7 km/h (1 Bft) O-NO 67 5,9 C 3,4 km/h (1 Bft)
10.10.2015 09:50 7,8 C 8,1 C 88 % 1015,0 hPa 0,0 mm 4,9 km/h (1 Bft) NO 45 5,9 C 12,4 km/h (3 Bft)
10.10.2015 09:55 7,8 C 8,1 C 88 % 1015,0 hPa 0,0 mm 4,1 km/h (1 Bft) O-NO 67 5,9 C 6,2 km/h (2 Bft)
10.10.2015 10:00 7,8 C 8,2 C 88 % 1015,0 hPa 0,0 mm 4,4 km/h (1 Bft) O-NO 67 5,9 C 6,0 km/h (2 Bft)
10.10.2015 10:05 7,8 C 8,2 C 88 % 1015,0 hPa 0,0 mm 4,4 km/h (1 Bft) O 90 5,9 C 6,0 km/h (2 Bft)
10.10.2015 10:10 7,9 C 8,3 C 88 % 1015,1 hPa 0,0 mm 4,4 km/h (1 Bft) NO 45 6,0 C 3,6 km/h (1 Bft)
10.10.2015 10:15 7,9 C 8,4 C 88 % 1015,1 hPa 0,0 mm 3,6 km/h (1 Bft) N-NO 22 6,0 C 8,3 km/h (2 Bft)
10.10.2015 10:20 7,9 C 8,6 C 88 % 1015,1 hPa 0,0 mm 3,9 km/h (1 Bft) O-NO 67 6,0 C 4,1 km/h (1 Bft)
10.10.2015 10:25 7,9 C 8,6 C 88 % 1015,1 hPa 0,0 mm 4,1 km/h (1 Bft) O-NO 67 6,0 C 0,0 km/h (0 Bft)
10.10.2015 10:30 8,0 C 8,6 C 88 % 1014,8 hPa 0,0 mm 3,6 km/h (1 Bft) O-NO 67 6,1 C 5,2 km/h (1 Bft)
10.10.2015 10:35 8,0 C 8,8 C 88 % 1014,8 hPa 0,0 mm 3,6 km/h (1 Bft) O-NO 67 6,1 C 4,7 km/h (1 Bft)
10.10.2015 10:40 8,0 C 8,9 C 88 % 1014,8 hPa 0,0 mm 3,1 km/h (1 Bft) NO 45 6,1 C 0,0 km/h (0 Bft)
10.10.2015 10:45 8,1 C 9,0 C 88 % 1014,8 hPa 0,0 mm 2,6 km/h (1 Bft) O-NO 67 6,2 C 0,0 km/h (0 Bft)
10.10.2015 10:50 8,1 C 9,2 C 88 % 1014,6 hPa 0,0 mm 2,3 km/h (1 Bft) SO 135 6,2 C 3,1 km/h (1 Bft)
10.10.2015 10:55 8,2 C 9,4 C 88 % 1014,6 hPa 0,0 mm 2,8 km/h (1 Bft) NO 45 6,3 C 6,0 km/h (2 Bft)
10.10.2015 11:00 8,2 C 9,4 C 88 % 1014,6 hPa 0,0 mm 3,9 km/h (1 Bft) O-NO 67 6,3 C 7,8 km/h (2 Bft)
10.10.2015 11:05 8,2 C 9,4 C 88 % 1014,6 hPa 0,0 mm 4,7 km/h (1 Bft) O-NO 67 6,3 C 4,4 km/h (1 Bft)
10.10.2015 11:10 8,3 C 9,4 C 88 % 1014,6 hPa 0,0 mm 4,4 km/h (1 Bft) N-NO 22 6,4 C 9,3 km/h (2 Bft)
10.10.2015 11:15 8,2 C 9,3 C 88 % 1014,6 hPa 0,0 mm 3,9 km/h (1 Bft) NO 45 6,3 C 0,0 km/h (0 Bft)
10.10.2015 11:20 8,2 C 9,2 C 88 % 1014,6 hPa 0,0 mm 4,7 km/h (1 Bft) O-NO 67 6,3 C 5,7 km/h (1 Bft)
10.10.2015 11:25 8,2 C 9,1 C 88 % 1014,6 hPa 0,0 mm 5,7 km/h (1 Bft) N-NO 22 6,3 C 9,1 km/h (2 Bft)
10.10.2015 11:30 8,2 C 8,9 C 88 % 1014,5 hPa 0,0 mm 6,7 km/h (2 Bft) N-NO 22 6,3 C 14,0 km/h (3 Bft)
10.10.2015 11:35 8,3 C 9,1 C 88 % 1014,5 hPa 0,0 mm 6,0 km/h (2 Bft) O-NO 67 6,4 C 9,8 km/h (2 Bft)
10.10.2015 11:40 8,4 C 9,1 C 88 % 1014,5 hPa 0,0 mm 6,2 km/h (2 Bft) O-NO 67 6,5 C 6,2 km/h (2 Bft)
10.10.2015 11:45 8,4 C 8,9 C 88 % 1014,5 hPa 0,0 mm 7,5 km/h (2 Bft) NO 45 6,5 C 8,3 km/h (2 Bft)
10.10.2015 11:50 8,4 C 8,9 C 88 % 1014,5 hPa 0,0 mm 7,8 km/h (2 Bft) NO 45 6,5 C 10,6 km/h (2 Bft)
10.10.2015 11:55 8,4 C 9,0 C 88 % 1014,5 hPa 0,0 mm 8,0 km/h (2 Bft) W 270 6,5 C 12,7 km/h (3 Bft)
10.10.2015 12:00 8,4 C 9,0 C 88 % 1014,5 hPa 0,0 mm 7,3 km/h (2 Bft) N-NO 22 6,5 C 16,6 km/h (3 Bft)
10.10.2015 12:05 8,5 C 9,4 C 88 % 1014,5 hPa 0,0 mm 6,0 km/h (2 Bft) O-NO 67 6,6 C 6,7 km/h (2 Bft)
10.10.2015 12:10 8,5 C 9,4 C 88 % 1014,3 hPa 0,0 mm 5,7 km/h (1 Bft) O-NO 67 6,6 C 6,7 km/h (2 Bft)
10.10.2015 12:15 8,5 C 9,2 C 88 % 1014,3 hPa 0,0 mm 7,0 km/h (2 Bft) NO 45 6,6 C 9,1 km/h (2 Bft)
10.10.2015 12:20 8,5 C 9,1 C 88 % 1014,3 hPa 0,0 mm 7,0 km/h (2 Bft) NO 45 6,6 C 5,7 km/h (1 Bft)
10.10.2015 12:25 8,5 C 9,2 C 88 % 1014,3 hPa 0,0 mm 6,7 km/h (2 Bft) N-NO 22 6,6 C 7,8 km/h (2 Bft)
10.10.2015 12:30 8,5 C 9,1 C 89 % 1014,4 hPa 0,0 mm 7,3 km/h (2 Bft) NO 45 6,8 C 11,1 km/h (2 Bft)
10.10.2015 12:35 8,5 C 9,1 C 89 % 1014,4 hPa 0,0 mm 7,0 km/h (2 Bft) O-NO 67 6,8 C 8,0 km/h (2 Bft)
10.10.2015 12:40 8,5 C 9,2 C 89 % 1014,4 hPa 0,0 mm 6,2 km/h (2 Bft) SO 135 6,8 C 4,7 km/h (1 Bft)
10.10.2015 12:45 8,5 C 9,0 C 89 % 1014,4 hPa 0,0 mm 6,7 km/h (2 Bft) NO 45 6,8 C 7,0 km/h (2 Bft)
10.10.2015 12:50 8,6 C 9,1 C 89 % 1014,3 hPa 0,0 mm 6,5 km/h (2 Bft) O 90 6,9 C 3,9 km/h (1 Bft)
10.10.2015 12:55 8,6 C 9,1 C 89 % 1014,3 hPa 0,0 mm 5,4 km/h (1 Bft) O-NO 67 6,9 C 6,0 km/h (2 Bft)
10.10.2015 13:00 8,6 C 9,1 C 89 % 1014,3 hPa 0,0 mm 4,7 km/h (1 Bft) O-NO 67 6,9 C 8,5 km/h (2 Bft)
10.10.2015 13:05 8,7 C 9,2 C 89 % 1014,3 hPa 0,0 mm 4,1 km/h (1 Bft) O-SO 112 7,0 C 9,8 km/h (2 Bft)
10.10.2015 13:10 8,7 C 9,2 C 89 % 1014,2 hPa 0,0 mm 4,9 km/h (1 Bft) O-NO 67 7,0 C 5,7 km/h (1 Bft)
10.10.2015 13:15 8,7 C 9,2 C 89 % 1014,2 hPa 0,0 mm 4,4 km/h (1 Bft) O 90 7,0 C 4,9 km/h (1 Bft)
10.10.2015 13:20 8,8 C 9,3 C 89 % 1014,2 hPa 0,0 mm 3,1 km/h (1 Bft) O-SO 112 7,1 C 4,7 km/h (1 Bft)
10.10.2015 13:25 8,8 C 9,4 C 89 % 1014,2 hPa 0,0 mm 3,9 km/h (1 Bft) N 360 7,1 C 4,1 km/h (1 Bft)
10.10.2015 13:30 8,9 C 9,4 C 89 % 1013,9 hPa 0,0 mm 4,7 km/h (1 Bft) S-SO 157 7,2 C 2,6 km/h (1 Bft)
10.10.2015 13:35 8,9 C 9,5 C 89 % 1013,9 hPa 0,0 mm 4,1 km/h (1 Bft) O-SO 112 7,2 C 7,5 km/h (2 Bft)
10.10.2015 13:40 8,9 C 9,3 C 89 % 1013,9 hPa 0,0 mm 4,1 km/h (1 Bft) W 270 7,2 C 4,7 km/h (1 Bft)
10.10.2015 13:45 8,9 C 9,2 C 89 % 1013,9 hPa 0,0 mm 5,7 km/h (1 Bft) S-SW 202 7,2 C 3,9 km/h (1 Bft)
10.10.2015 13:50 8,9 C 9,3 C 89 % 1013,8 hPa 0,0 mm 5,7 km/h (1 Bft) NO 45 7,2 C 7,0 km/h (2 Bft)
10.10.2015 13:55 8,9 C 9,3 C 89 % 1013,8 hPa 0,0 mm 4,7 km/h (1 Bft) N-NO 22 7,2 C 0,0 km/h (0 Bft)
10.10.2015 14:00 9,0 C 9,4 C 89 % 1013,8 hPa 0,0 mm 4,4 km/h (1 Bft) O-NO 67 7,3 C 6,0 km/h (2 Bft)
10.10.2015 14:05 9,0 C 9,3 C 89 % 1013,8 hPa 0,0 mm 4,1 km/h (1 Bft) N-NO 22 7,3 C 12,7 km/h (3 Bft)
10.10.2015 14:10 9,0 C 9,3 C 89 % 1013,6 hPa 0,0 mm 6,0 km/h (2 Bft) N-NO 22 7,3 C 6,2 km/h (2 Bft)
10.10.2015 14:15 9,0 C 9,3 C 89 % 1013,6 hPa 0,0 mm 5,2 km/h (1 Bft) O-NO 67 7,3 C 0,0 km/h (0 Bft)
10.10.2015 14:20 9,1 C 9,5 C 89 % 1013,6 hPa 0,0 mm 2,8 km/h (1 Bft) N-NO 22 7,4 C 7,8 km/h (2 Bft)
10.10.2015 14:25 9,1 C 9,4 C 89 % 1013,6 hPa 0,0 mm 3,1 km/h (1 Bft) NO 45 7,4 C 9,8 km/h (2 Bft)
10.10.2015 14:30 9,2 C 9,4 C 89 % 1013,5 hPa 0,0 mm 4,1 km/h (1 Bft) NO 45 7,5 C 2,6 km/h (1 Bft)
10.10.2015 14:35 9,2 C 9,5 C 89 % 1013,5 hPa 0,0 mm 2,6 km/h (1 Bft) NW 315 7,5 C 0,0 km/h (0 Bft)
10.10.2015 14:40 9,2 C 9,6 C 89 % 1013,5 hPa 0,0 mm 1,6 km/h (1 Bft) NO 45 7,5 C 2,8 km/h (1 Bft)
10.10.2015 14:45 9,2 C 9,6 C 89 % 1013,5 hPa 0,0 mm 2,1 km/h (1 Bft) SO 135 7,5 C 3,9 km/h (1 Bft)
10.10.2015 14:50 9,3 C 9,6 C 89 % 1013,2 hPa 0,0 mm 1,3 km/h (1 Bft) SO 135 7,6 C 0,0 km/h (0 Bft)
10.10.2015 14:55 9,3 C 9,6 C 89 % 1013,2 hPa 0,0 mm 1,3 km/h (1 Bft) N 360 7,6 C 4,1 km/h (1 Bft)
10.10.2015 15:00 9,3 C 9,6 C 89 % 1013,2 hPa 0,0 mm 2,8 km/h (1 Bft) O-NO 67 7,6 C 10,4 km/h (2 Bft)
10.10.2015 15:05 9,3 C 9,6 C 89 % 1013,2 hPa 0,0 mm 5,2 km/h (1 Bft) O 90 7,6 C 3,4 km/h (1 Bft)
10.10.2015 15:10 9,4 C 9,6 C 89 % 1013,2 hPa 0,0 mm 5,4 km/h (1 Bft) N-NO 22 7,7 C 5,7 km/h (1 Bft)
10.10.2015 15:15 9,4 C 9,7 C 89 % 1013,2 hPa 0,0 mm 3,9 km/h (1 Bft) N-NO 22 7,7 C 5,4 km/h (1 Bft)
10.10.2015 15:20 9,5 C 9,7 C 89 % 1013,2 hPa 0,0 mm 4,9 km/h (1 Bft) NO 45 7,8 C 10,1 km/h (2 Bft)
10.10.2015 15:25 9,5 C 9,8 C 89 % 1013,2 hPa 0,0 mm 5,4 km/h (1 Bft) NO 45 7,8 C 8,8 km/h (2 Bft)
10.10.2015 15:30 9,5 C 9,8 C 89 % 1012,9 hPa 0,0 mm 4,7 km/h (1 Bft) N-NO 22 7,8 C 0,0 km/h (0 Bft)
10.10.2015 15:35 9,6 C 9,8 C 89 % 1012,9 hPa 0,0 mm 4,9 km/h (1 Bft) NO 45 7,9 C 8,0 km/h (2 Bft)
10.10.2015 15:40 9,5 C 9,7 C 89 % 1012,9 hPa 0,0 mm 5,7 km/h (1 Bft) N-NO 22 7,8 C 6,0 km/h (2 Bft)
10.10.2015 15:45 9,5 C 9,7 C 89 % 1012,9 hPa 0,0 mm 6,5 km/h (2 Bft) N-NO 22 7,8 C 5,7 km/h (1 Bft)
10.10.2015 15:50 9,6 C 9,7 C 89 % 1012,8 hPa 0,0 mm 6,0 km/h (2 Bft) N-NO 22 7,9 C 10,6 km/h (2 Bft)
10.10.2015 15:55 9,6 C 9,7 C 89 % 1012,8 hPa 0,0 mm 6,7 km/h (2 Bft) O-NO 67 7,9 C 7,0 km/h (2 Bft)
10.10.2015 16:00 9,6 C 9,7 C 89 % 1012,8 hPa 0,0 mm 7,8 km/h (2 Bft) N-NO 22 7,9 C 9,6 km/h (2 Bft)
10.10.2015 16:05 9,5 C 9,4 C 89 % 1012,8 hPa 0,0 mm 9,6 km/h (2 Bft) NO 45 7,8 C 13,5 km/h (3 Bft)
10.10.2015 16:10 9,5 C 9,5 C 89 % 1012,8 hPa 0,0 mm 9,6 km/h (2 Bft) N-NO 22 7,8 C 17,3 km/h (3 Bft)
10.10.2015 16:15 9,6 C 9,7 C 89 % 1012,8 hPa 0,0 mm 7,3 km/h (2 Bft) O-NO 67 7,9 C 6,2 km/h (2 Bft)
10.10.2015 16:20 9,6 C 9,7 C 89 % 1012,8 hPa 0,0 mm 6,7 km/h (2 Bft) N-NO 22 7,9 C 8,8 km/h (2 Bft)
10.10.2015 16:25 9,6 C 9,7 C 89 % 1012,8 hPa 0,0 mm 6,7 km/h (2 Bft) O-SO 112 7,9 C 13,2 km/h (3 Bft)
10.10.2015 16:30 9,5 C 9,6 C 89 % 1012,6 hPa 0,0 mm 6,5 km/h (2 Bft) O-SO 112 7,8 C 4,7 km/h (1 Bft)
10.10.2015 16:35 9,5 C 9,6 C 89 % 1012,6 hPa 0,0 mm 7,0 km/h (2 Bft) N 360 7,8 C 10,9 km/h (2 Bft)
10.10.2015 16:40 9,5 C 9,6 C 89 % 1012,6 hPa 0,0 mm 7,0 km/h (2 Bft) NO 45 7,8 C 9,6 km/h (2 Bft)
10.10.2015 16:45 9,5 C 9,5 C 89 % 1012,6 hPa 0,0 mm 7,5 km/h (2 Bft) O-NO 67 7,8 C 11,1 km/h (2 Bft)
10.10.2015 16:50 9,5 C 9,5 C 89 % 1012,8 hPa 0,0 mm 7,8 km/h (2 Bft) O-NO 67 7,8 C 11,4 km/h (2 Bft)
10.10.2015 16:55 9,4 C 9,4 C 89 % 1012,8 hPa 0,0 mm 7,5 km/h (2 Bft) NO 45 7,7 C 7,8 km/h (2 Bft)
10.10.2015 17:00 9,4 C 9,3 C 89 % 1012,8 hPa 0,0 mm 7,3 km/h (2 Bft) N-NO 22 7,7 C 8,8 km/h (2 Bft)
10.10.2015 17:05 9,4 C 9,4 C 89 % 1012,8 hPa 0,0 mm 5,2 km/h (1 Bft) O-NO 67 7,7 C 6,5 km/h (2 Bft)
10.10.2015 17:10 9,4 C 9,4 C 89 % 1012,7 hPa 0,0 mm 4,9 km/h (1 Bft) NO 45 7,7 C 7,3 km/h (2 Bft)
10.10.2015 17:15 9,4 C 9,4 C 89 % 1012,7 hPa 0,0 mm 4,7 km/h (1 Bft) N-NO 22 7,7 C 3,9 km/h (1 Bft)
10.10.2015 17:20 9,4 C 9,4 C 89 % 1012,7 hPa 0,0 mm 4,1 km/h (1 Bft) O-NO 67 7,7 C 4,4 km/h (1 Bft)
10.10.2015 17:25 9,3 C 9,3 C 89 % 1012,7 hPa 0,0 mm 5,4 km/h (1 Bft) N 360 7,6 C 7,8 km/h (2 Bft)
10.10.2015 17:30 9,3 C 9,3 C 89 % 1012,9 hPa 0,0 mm 6,2 km/h (2 Bft) NO 45 7,6 C 7,8 km/h (2 Bft)
10.10.2015 17:35 9,3 C 9,3 C 89 % 1012,9 hPa 0,0 mm 5,7 km/h (1 Bft) O-NO 67 7,6 C 11,9 km/h (2 Bft)
10.10.2015 17:40 9,3 C 9,3 C 89 % 1012,9 hPa 0,0 mm 4,4 km/h (1 Bft) O-NO 67 7,6 C 5,4 km/h (1 Bft)
10.10.2015 17:45 9,3 C 9,3 C 89 % 1012,9 hPa 0,0 mm 3,4 km/h (1 Bft) SO 135 7,6 C 3,6 km/h (1 Bft)
10.10.2015 17:50 9,3 C 9,3 C 89 % 1012,8 hPa 0,0 mm 2,3 km/h (1 Bft) O 90 7,6 C 2,6 km/h (1 Bft)
10.10.2015 17:55 9,3 C 9,3 C 89 % 1012,8 hPa 0,0 mm 2,3 km/h (1 Bft) N-NO 22 7,6 C 0,0 km/h (0 Bft)
10.10.2015 18:00 9,3 C 9,3 C 89 % 1012,8 hPa 0,0 mm 2,6 km/h (1 Bft) NO 45 7,6 C 3,4 km/h (1 Bft)
10.10.2015 18:05 9,3 C 9,3 C 89 % 1012,8 hPa 0,0 mm 2,3 km/h (1 Bft) O-SO 112 7,6 C 3,9 km/h (1 Bft)
10.10.2015 18:10 9,3 C 9,3 C 89 % 1012,5 hPa 0,0 mm 1,8 km/h (1 Bft) N-NO 22 7,6 C 3,4 km/h (1 Bft)
10.10.2015 18:15 9,3 C 9,2 C 91 % 1012,5 hPa 0,0 mm 1,3 km/h (1 Bft) O-SO 112 7,9 C 0,0 km/h (0 Bft)
10.10.2015 18:20 9,3 C 9,2 C 91 % 1012,5 hPa 0,0 mm 2,1 km/h (1 Bft) NO 45 7,9 C 7,5 km/h (2 Bft)
10.10.2015 18:25 9,2 C 9,2 C 89 % 1012,5 hPa 0,0 mm 3,6 km/h (1 Bft) N-NO 22 7,5 C 2,6 km/h (1 Bft)
10.10.2015 18:30 9,2 C 9,2 C 89 % 1012,8 hPa 0,0 mm 3,6 km/h (1 Bft) O-NO 67 7,5 C 2,8 km/h (1 Bft)
10.10.2015 18:35 9,2 C 9,2 C 89 % 1012,8 hPa 0,0 mm 3,1 km/h (1 Bft) NO 45 7,5 C 7,0 km/h (2 Bft)
10.10.2015 18:40 9,3 C 9,2 C 91 % 1012,8 hPa 0,0 mm 3,6 km/h (1 Bft) O-NO 67 7,9 C 7,5 km/h (2 Bft)
10.10.2015 18:45 9,2 C 9,2 C 89 % 1012,8 hPa 0,0 mm 4,1 km/h (1 Bft) O-NO 67 7,5 C 9,6 km/h (2 Bft)
10.10.2015 18:50 9,2 C 9,1 C 91 % 1012,9 hPa 0,0 mm 5,4 km/h (1 Bft) NO 45 7,8 C 11,7 km/h (2 Bft)
10.10.2015 18:55 9,1 C 8,9 C 91 % 1012,9 hPa 0,0 mm 8,3 km/h (2 Bft) NO 45 7,7 C 9,1 km/h (2 Bft)
10.10.2015 19:00 9,1 C 8,8 C 91 % 1012,9 hPa 0,0 mm 8,3 km/h (2 Bft) O-NO 67 7,7 C 9,8 km/h (2 Bft)
10.10.2015 19:05 9,1 C 8,9 C 91 % 1012,9 hPa 0,0 mm 6,7 km/h (2 Bft) O 90 7,7 C 6,2 km/h (2 Bft)
10.10.2015 19:10 9,1 C 9,0 C 91 % 1012,8 hPa 0,0 mm 6,5 km/h (2 Bft) O-NO 67 7,7 C 7,0 km/h (2 Bft)
10.10.2015 19:15 9,0 C 8,8 C 91 % 1012,8 hPa 0,0 mm 6,7 km/h (2 Bft) N-NO 22 7,6 C 8,5 km/h (2 Bft)
10.10.2015 19:20 9,0 C 8,9 C 91 % 1012,8 hPa 0,0 mm 5,2 km/h (1 Bft) O 90 7,6 C 5,7 km/h (1 Bft)
10.10.2015 19:25 9,0 C 8,9 C 91 % 1012,8 hPa 0,0 mm 3,9 km/h (1 Bft) N-NO 22 7,6 C 6,2 km/h (2 Bft)
10.10.2015 19:30 8,9 C 8,8 C 91 % 1012,9 hPa 0,0 mm 3,9 km/h (1 Bft) O 90 7,5 C 4,9 km/h (1 Bft)
10.10.2015 19:35 8,9 C 8,8 C 91 % 1012,9 hPa 0,0 mm 3,4 km/h (1 Bft) NO 45 7,5 C 0,0 km/h (0 Bft)
10.10.2015 19:40 8,9 C 8,8 C 91 % 1012,9 hPa 0,0 mm 2,6 km/h (1 Bft) SO 135 7,5 C 0,0 km/h (0 Bft)
10.10.2015 19:45 8,9 C 8,8 C 91 % 1012,9 hPa 0,0 mm 1,3 km/h (1 Bft) N-NO 22 7,5 C 7,0 km/h (2 Bft)
10.10.2015 19:50 8,9 C 8,8 C 91 % 1012,9 hPa 0,0 mm 1,8 km/h (1 Bft) O-SO 112 7,5 C 4,9 km/h (1 Bft)
10.10.2015 19:55 8,8 C 8,8 C 89 % 1012,9 hPa 0,0 mm 2,8 km/h (1 Bft) O-NO 67 7,1 C 4,7 km/h (1 Bft)
10.10.2015 20:00 8,8 C 8,8 C 89 % 1012,9 hPa 0,0 mm 2,6 km/h (1 Bft) N-NO 22 7,1 C 0,0 km/h (0 Bft)
10.10.2015 20:05 8,8 C 8,7 C 91 % 1012,9 hPa 0,0 mm 1,6 km/h (1 Bft) NO 45 7,4 C 9,1 km/h (2 Bft)
10.10.2015 20:10 8,8 C 8,7 C 91 % 1012,8 hPa 0,0 mm 1,8 km/h (1 Bft) NO 45 7,4 C 10,6 km/h (2 Bft)
10.10.2015 20:15 8,8 C 8,7 C 91 % 1012,8 hPa 0,0 mm 3,1 km/h (1 Bft) N-NO 22 7,4 C 5,2 km/h (1 Bft)
10.10.2015 20:20 8,8 C 8,7 C 91 % 1012,8 hPa 0,0 mm 2,6 km/h (1 Bft) O-SO 112 7,4 C 0,0 km/h (0 Bft)
10.10.2015 20:25 8,8 C 8,6 C 91 % 1012,8 hPa 0,0 mm 2,3 km/h (1 Bft) SO 135 7,4 C 7,5 km/h (2 Bft)
10.10.2015 20:30 8,8 C 8,6 C 91 % 1012,8 hPa 0,0 mm 2,1 km/h (1 Bft) S 180 7,4 C 6,0 km/h (2 Bft)
10.10.2015 20:35 8,8 C 8,6 C 91 % 1012,8 hPa 0,0 mm 2,8 km/h (1 Bft) O-NO 67 7,4 C 3,4 km/h (1 Bft)
10.10.2015 20:40 8,7 C 8,6 C 91 % 1012,8 hPa 0,0 mm 3,9 km/h (1 Bft) N-NO 22 7,3 C 6,2 km/h (2 Bft)
10.10.2015 20:45 8,7 C 8,6 C 91 % 1012,8 hPa 0,0 mm 2,8 km/h (1 Bft) NO 45 7,3 C 3,4 km/h (1 Bft)
10.10.2015 20:46 8,7 C 8,6 C 91 % 1012,8 hPa 0,0 mm 2,8 km/h (1 Bft) NO 45 7,3 C 3,4 km/h (1 Bft)
10.10.2015 20:50 8,7 C 8,6 C 91 % 1012,6 hPa 0,0 mm 3,4 km/h (1 Bft) SO 135 7,3 C 0,0 km/h (0 Bft)
10.10.2015 20:55 8,7 C 8,6 C 91 % 1012,6 hPa 0,0 mm 3,1 km/h (1 Bft) S-SO 157 7,3 C 6,7 km/h (2 Bft)
10.10.2015 21:00 8,7 C 8,6 C 91 % 1012,6 hPa 0,0 mm 2,6 km/h (1 Bft) O 90 7,3 C 4,4 km/h (1 Bft)
10.10.2015 21:05 8,7 C 8,6 C 91 % 1012,6 hPa 0,0 mm 3,9 km/h (1 Bft) O-NO 67 7,3 C 4,7 km/h (1 Bft)
10.10.2015 21:10 8,7 C 8,6 C 91 % 1012,6 hPa 0,0 mm 3,4 km/h (1 Bft) O-SO 112 7,3 C 5,4 km/h (1 Bft)
10.10.2015 21:15 8,6 C 8,5 C 91 % 1012,6 hPa 0,0 mm 1,6 km/h (1 Bft) NO 45 7,2 C 3,1 km/h (1 Bft)
10.10.2015 21:20 8,6 C 8,5 C 91 % 1012,6 hPa 0,0 mm 1,8 km/h (1 Bft) NO 45 7,2 C 3,4 km/h (1 Bft)
10.10.2015 21:25 8,6 C 8,5 C 91 % 1012,6 hPa 0,0 mm 1,0 km/h (0 Bft) NO 45 7,2 C 3,4 km/h (1 Bft)
10.10.2015 21:30 8,6 C 8,5 C 91 % 1012,7 hPa 0,0 mm 1,3 km/h (1 Bft) NO 45 7,2 C 3,4 km/h (1 Bft)
10.10.2015 21:35 8,6 C 8,5 C 91 % 1012,7 hPa 0,0 mm 2,1 km/h (1 Bft) NO 45 7,2 C 5,7 km/h (1 Bft)
10.10.2015 21:40 8,6 C 8,5 C 91 % 1012,7 hPa 0,0 mm 3,4 km/h (1 Bft) NO 45 7,2 C 5,7 km/h (1 Bft)
10.10.2015 21:45 8,6 C 8,6 C 89 % 1012,7 hPa 0,0 mm 4,7 km/h (1 Bft) O-NO 67 6,9 C 5,4 km/h (1 Bft)
10.10.2015 21:50 8,6 C 8,6 C 89 % 1012,4 hPa 0,0 mm 4,7 km/h (1 Bft) O-SO 112 6,9 C 6,2 km/h (2 Bft)
10.10.2015 21:55 8,7 C 8,6 C 91 % 1012,4 hPa 0,0 mm 4,9 km/h (1 Bft) O-NO 67 7,3 C 8,3 km/h (2 Bft)
10.10.2015 22:00 8,7 C 8,6 C 91 % 1012,4 hPa 0,0 mm 4,7 km/h (1 Bft) O-NO 67 7,3 C 6,7 km/h (2 Bft)
10.10.2015 22:05 8,7 C 8,6 C 91 % 1012,4 hPa 0,0 mm 4,9 km/h (1 Bft) O-NO 67 7,3 C 7,0 km/h (2 Bft)
10.10.2015 22:10 8,7 C 8,6 C 91 % 1012,5 hPa 0,0 mm 4,7 km/h (1 Bft) O-NO 67 7,3 C 10,6 km/h (2 Bft)
10.10.2015 22:15 8,7 C 8,6 C 90 % 1012,5 hPa 0,0 mm 4,9 km/h (1 Bft) N 360 7,2 C 0,0 km/h (0 Bft)
10.10.2015 22:20 8,6 C 8,5 C 90 % 1012,5 hPa 0,0 mm 3,6 km/h (1 Bft) N-NO 22 7,1 C 0,0 km/h (0 Bft)
10.10.2015 22:25 8,6 C 8,5 C 90 % 1012,5 hPa 0,0 mm 2,6 km/h (1 Bft) O-SO 112 7,1 C 6,0 km/h (2 Bft)
10.10.2015 22:30 8,6 C 8,5 C 90 % 1012,5 hPa 0,0 mm 3,9 km/h (1 Bft) O-NO 67 7,1 C 4,7 km/h (1 Bft)
10.10.2015 22:35 8,6 C 8,5 C 90 % 1012,5 hPa 0,0 mm 5,4 km/h (1 Bft) NO 45 7,1 C 9,3 km/h (2 Bft)
10.10.2015 22:40 8,5 C 8,4 C 90 % 1012,5 hPa 0,0 mm 5,7 km/h (1 Bft) NO 45 7,0 C 7,5 km/h (2 Bft)
10.10.2015 22:45 8,5 C 8,4 C 90 % 1012,5 hPa 0,0 mm 5,7 km/h (1 Bft) NO 45 7,0 C 5,2 km/h (1 Bft)
10.10.2015 22:50 8,4 C 8,3 C 90 % 1012,5 hPa 0,0 mm 5,4 km/h (1 Bft) O-NO 67 6,9 C 5,4 km/h (1 Bft)
10.10.2015 22:55 8,4 C 8,3 C 90 % 1012,5 hPa 0,0 mm 5,7 km/h (1 Bft) W 270 6,9 C 3,6 km/h (1 Bft)
10.10.2015 23:00 8,3 C 8,2 C 90 % 1012,5 hPa 0,0 mm 4,9 km/h (1 Bft) NO 45 6,8 C 9,3 km/h (2 Bft)
10.10.2015 23:05 8,3 C 8,2 C 90 % 1012,5 hPa 0,7 mm 3,9 km/h (1 Bft) N-NO 22 6,8 C 4,4 km/h (1 Bft)
10.10.2015 23:10 8,3 C 8,2 C 90 % 1012,2 hPa 0,0 mm 4,1 km/h (1 Bft) N-NO 22 6,8 C 6,5 km/h (2 Bft)
10.10.2015 23:15 8,2 C 8,1 C 90 % 1012,2 hPa 0,0 mm 3,9 km/h (1 Bft) NO 45 6,7 C 3,4 km/h (1 Bft)
10.10.2015 23:20 8,3 C 8,2 C 90 % 1012,2 hPa 0,0 mm 4,7 km/h (1 Bft) O-NO 67 6,8 C 5,4 km/h (1 Bft)
10.10.2015 23:25 8,2 C 8,1 C 90 % 1012,2 hPa 0,0 mm 5,4 km/h (1 Bft) NO 45 6,7 C 5,7 km/h (1 Bft)
10.10.2015 23:30 8,2 C 8,1 C 90 % 1012,0 hPa 0,0 mm 5,7 km/h (1 Bft) O-SO 112 6,7 C 4,7 km/h (1 Bft)
10.10.2015 23:35 8,2 C 8,1 C 91 % 1012,0 hPa 0,0 mm 5,4 km/h (1 Bft) NO 45 6,8 C 8,0 km/h (2 Bft)
10.10.2015 23:40 8,2 C 8,1 C 91 % 1012,0 hPa 0,0 mm 4,9 km/h (1 Bft) O-NO 67 6,8 C 6,5 km/h (2 Bft)
10.10.2015 23:45 8,1 C 8,0 C 91 % 1012,0 hPa 0,0 mm 4,7 km/h (1 Bft) SO 135 6,7 C 6,0 km/h (2 Bft)
10.10.2015 23:50 8,1 C 8,1 C 88 % 1012,0 hPa 0,0 mm 4,1 km/h (1 Bft) O-NO 67 6,2 C 7,5 km/h (2 Bft)
10.10.2015 23:55 8,1 C 8,0 C 91 % 1012,0 hPa 0,0 mm 3,6 km/h (1 Bft) O-SO 112 6,7 C 5,2 km/h (1 Bft)
_ Min-Zeit 01:15 01:15 01:05 23:55 - 09:35 - - 01:45 22:20
Minimum _ 5,3 C 5,2 C 86 % 1012,0 hPa - 0,0 km/h (0 Bft) - - 3,7 C 0,0 km/h (0 Bft)
_ Max-Zeit 16:25 15:35 23:55 00:25 23:05 16:10 - - 18:40 16:10
Maximum _ 9,6 C 9,8 C 91 % 1017,2 hPa 0,7 mm 9,6 km/h
N-NO (2 Bft)
- - 7,9 C 17,3 km/h
N-NO (3 Bft)
Durchschnitt _ 8,1 C 8,2 C 89 % 1014,3 hPa #0,7 mm 2,8 km/h (1 Bft) O-NO - 6,4 C 3,7 km/h (1 Bft)